Egegik, AK

5:54 PM AKDT on April 28, 2017 (GMT -0800)
Egegik

Weather History for PAII - October, 2012

Change the Weather History Date:

Thursday, October 25, 2012

  Actual Average (PAKN) Record (PAKN)
Temperature  
Mean Temperature 24 °F -  
Max Temperature 35 °F 35 °F 58 °F (1938)
Min Temperature 14 °F 18 °F -12 °F (1983)
Degree Days  
Heating Degree Days 40    
Moisture  
Dew Point 17 °F    
Average Humidity 79    
Maximum Humidity 86    
Minimum Humidity 69    
Precipitation  
Precipitation 0.00 in - - ()
Sea Level Pressure  
Sea Level Pressure 30.41 in    
Wind  
Wind Speed 8 mph (NE)    
Max Wind Speed 13 mph    
Max Gust Speed -    
Visibility 10 miles    
Events      
Averages and records for this station are not official NWS values.
T = Trace of Precipitation, MM = Missing Value Source: NWS Daily Summary

Daily Weather History Graph

Daily Weather History Graph

Search for Another Location

Airport or City:

Trip Planner

Search our weather history database for the weather conditions in past years. The results will help you decide how hot, cold, wet, or windy it might be!

Date:

Astronomy

Oct. 25, 2012 Rise Set
Actual Time 9:29 AM AKDT 6:56 PM AKDT
Civil Twilight 8:48 AM AKDT 7:37 PM AKDT
Nautical Twilight 8:02 AM AKDT 8:23 PM AKDT
Astronomical Twilight 7:16 AM AKDT 9:09 PM AKDT
Moon 5:24 PM AKDT (10/25) 4:53 AM AKDT (10/25)
Length of Visible Light 10h 49m
Length of Day
9h 26m
Waxing Gibbous, 85% of the Moon is Illuminated
Oct 25
Waxing Gibbous
Oct 29
Full
Nov 6
Last Quarter
Nov 13
New
Nov 20
First Quarter

Hourly Weather History & Observations

Time (AKDT) Temp. Windchill Dew Point Humidity Pressure Visibility Wind Dir Wind Speed Gust Speed Precip Events Conditions
12:16 AM 19.4 °F 6.6 °F 14.0 °F 80% 30.39 in 10.0 mi NE 12.7 mph - N/A   Clear
12:36 AM 19.4 °F 6.6 °F 12.2 °F 74% 30.39 in 10.0 mi NE 12.7 mph - N/A   Clear
12:56 AM 17.6 °F 5.7 °F 10.4 °F 73% 30.38 in 10.0 mi NE 10.4 mph - N/A   Clear
1:16 AM 17.6 °F 5.7 °F 10.4 °F 73% 30.38 in 10.0 mi NE 10.4 mph - N/A   Clear
1:36 AM 17.6 °F 7.3 °F 10.4 °F 73% 30.38 in 10.0 mi NE 8.1 mph - N/A   Clear
1:56 AM 17.6 °F 10.7 °F 12.2 °F 79% 30.39 in 10.0 mi NE 4.6 mph - N/A   Clear
2:16 AM 17.6 °F 7.3 °F 10.4 °F 73% 30.39 in 10.0 mi NE 8.1 mph - N/A   Clear
2:36 AM 17.6 °F 9.3 °F 10.4 °F 73% 30.40 in 10.0 mi NE 5.8 mph - N/A   Clear
2:56 AM 15.8 °F - 10.4 °F 79% 30.40 in 10.0 mi Calm Calm - N/A   Clear
3:16 AM 15.8 °F 6.1 °F 10.4 °F 79% 30.40 in 10.0 mi NNE 6.9 mph - N/A   Clear
3:36 AM 17.6 °F 7.3 °F 10.4 °F 73% 30.39 in 10.0 mi NNE 8.1 mph - N/A   Clear
3:56 AM 17.6 °F 8.2 °F 10.4 °F 73% 30.39 in 10.0 mi NNE 6.9 mph - N/A   Clear
4:16 AM 15.8 °F 5.1 °F 12.2 °F 86% 30.39 in 10.0 mi NE 8.1 mph - N/A   Clear
4:36 AM 15.8 °F 6.1 °F 10.4 °F 79% 30.39 in 10.0 mi NE 6.9 mph - N/A   Clear
4:56 AM 15.8 °F 6.1 °F 10.4 °F 79% 30.39 in 10.0 mi NE 6.9 mph - N/A   Clear
5:16 AM 14.0 °F 2.9 °F 10.4 °F 86% 30.39 in 10.0 mi ENE 8.1 mph - N/A   Clear
5:36 AM 14.0 °F 3.9 °F 10.4 °F 86% 30.39 in 10.0 mi ENE 6.9 mph - N/A   Clear
5:56 AM 14.0 °F 2.0 °F 10.4 °F 86% 30.39 in 10.0 mi ENE 9.2 mph - N/A   Clear
6:16 AM 14.0 °F - 8.6 °F 79% 30.39 in 10.0 mi Calm Calm - N/A   Clear
6:36 AM 14.0 °F - 10.4 °F 86% 30.39 in 10.0 mi Calm Calm - N/A   Clear
6:56 AM 14.0 °F 3.9 °F 10.4 °F 86% 30.40 in 10.0 mi North 6.9 mph - N/A   Clear
7:16 AM 15.8 °F 7.2 °F 12.2 °F 86% 30.41 in 10.0 mi North 5.8 mph - N/A   Clear
7:36 AM 17.6 °F - 14.0 °F 86% 30.41 in 10.0 mi Calm Calm - N/A   Clear
7:56 AM 15.8 °F 8.6 °F 12.2 °F 86% 30.41 in 10.0 mi North 4.6 mph - N/A   Clear
8:16 AM 15.8 °F 7.2 °F 12.2 °F 86% 30.42 in 10.0 mi NNE 5.8 mph - N/A   Clear
8:36 AM 15.8 °F - 12.2 °F 86% 30.42 in 10.0 mi Calm Calm - N/A   Clear
8:56 AM 15.8 °F 8.6 °F 12.2 °F 86% 30.42 in 10.0 mi North 4.6 mph - N/A   Clear
9:16 AM 17.6 °F - 12.2 °F 79% 30.42 in 10.0 mi Calm Calm - N/A   Clear
9:36 AM 15.8 °F 8.6 °F 12.2 °F 86% 30.42 in 10.0 mi ENE 4.6 mph - N/A   Clear
9:56 AM 15.8 °F 6.1 °F 12.2 °F 86% 30.41 in 10.0 mi ENE 6.9 mph - N/A   Clear
10:16 AM 15.8 °F 4.2 °F 12.2 °F 86% 30.42 in 10.0 mi East 9.2 mph - N/A   Clear
10:36 AM 15.8 °F 4.2 °F 12.2 °F 86% 30.42 in 10.0 mi ENE 9.2 mph - N/A   Partly Cloudy
10:56 AM 17.6 °F 7.3 °F 14.0 °F 86% 30.43 in 10.0 mi NE 8.1 mph - N/A   Mostly Cloudy
11:16 AM 19.4 °F 12.8 °F 15.8 °F 86% 30.43 in 10.0 mi North 4.6 mph - N/A   Overcast
11:36 AM 19.4 °F 10.4 °F 15.8 °F 86% 30.43 in 10.0 mi NNE 6.9 mph - N/A   Overcast
12:16 PM 21.2 °F 12.6 °F 17.6 °F 86% 30.43 in 10.0 mi NNE 6.9 mph - N/A   Overcast
12:36 PM 23.0 °F 17.0 °F 17.6 °F 80% 30.43 in 10.0 mi NNE 4.6 mph - N/A   Overcast
12:56 PM 24.8 °F 17.9 °F 17.6 °F 74% 30.44 in 10.0 mi North 5.8 mph - N/A   Overcast
1:16 PM 24.8 °F 15.3 °F 19.4 °F 80% 30.43 in 10.0 mi NNE 9.2 mph - N/A   Overcast
1:36 PM 26.6 °F 18.2 °F 19.4 °F 74% 30.43 in 10.0 mi NE 8.1 mph - N/A   Overcast
1:56 PM 28.4 °F 21.2 °F 21.2 °F 74% 30.43 in 10.0 mi NE 6.9 mph - N/A   Scattered Clouds
2:16 PM 28.4 °F 22.2 °F 21.2 °F 74% 30.43 in 10.0 mi NE 5.8 mph - N/A   Clear
2:36 PM 30.2 °F 21.3 °F 21.2 °F 69% 30.42 in 10.0 mi NE 10.4 mph - N/A   Clear
2:56 PM 32.0 °F 24.8 °F 23.0 °F 69% 30.42 in 10.0 mi NNE 8.1 mph - N/A   Clear
3:16 PM 32.0 °F 23.6 °F 23.0 °F 69% 30.42 in 10.0 mi NE 10.4 mph - N/A   Clear
3:36 PM 33.8 °F 26.4 °F 24.8 °F 70% 30.43 in 10.0 mi NNE 9.2 mph - N/A   Mostly Cloudy
3:56 PM 33.8 °F 25.8 °F 26.6 °F 75% 30.42 in 10.0 mi NNE 10.4 mph - N/A   Overcast
4:16 PM 33.8 °F 26.4 °F 26.6 °F 75% 30.42 in 10.0 mi NE 9.2 mph - N/A   Overcast
4:36 PM 33.8 °F 26.4 °F 26.6 °F 75% 30.42 in 10.0 mi NE 9.2 mph - N/A   Overcast
4:56 PM 33.8 °F 25.8 °F 26.6 °F 75% 30.41 in 10.0 mi NE 10.4 mph - N/A   Overcast
5:16 PM 33.8 °F 25.8 °F 26.6 °F 75% 30.40 in 10.0 mi NE 10.4 mph - N/A   Overcast
5:36 PM 35.6 °F 28.6 °F 26.6 °F 70% 30.40 in 10.0 mi NE 9.2 mph - N/A   Overcast
5:56 PM 35.6 °F 29.2 °F 26.6 °F 70% 30.40 in 10.0 mi NE 8.1 mph - N/A   Overcast
6:16 PM 33.8 °F 25.8 °F 26.6 °F 75% 30.40 in 10.0 mi NE 10.4 mph - N/A   Overcast
6:36 PM 33.8 °F 27.7 °F 26.6 °F 75% 30.41 in 10.0 mi NE 6.9 mph - N/A   Overcast
6:56 PM 33.8 °F 27.7 °F 26.6 °F 75% 30.41 in 10.0 mi NE 6.9 mph - N/A   Overcast
7:16 PM 32.0 °F 24.2 °F 26.6 °F 80% 30.42 in 10.0 mi NE 9.2 mph - N/A   Overcast
7:56 PM 30.2 °F 21.9 °F 24.8 °F 80% 30.42 in 10.0 mi NE 9.2 mph - N/A   Partly Cloudy
8:16 PM 28.4 °F 20.4 °F 24.8 °F 86% 30.42 in 10.0 mi NE 8.1 mph - N/A   Clear
8:36 PM 28.4 °F 20.4 °F 23.0 °F 80% 30.42 in 10.0 mi NE 8.1 mph - N/A   Clear
8:56 PM 30.2 °F 21.9 °F 23.0 °F 75% 30.42 in 10.0 mi NE 9.2 mph - N/A   Clear
9:16 PM 28.4 °F 19.7 °F 23.0 °F 80% 30.42 in 10.0 mi NE 9.2 mph - N/A   Clear
9:36 PM 28.4 °F 20.4 °F 21.2 °F 74% 30.43 in 10.0 mi NE 8.1 mph - N/A   Clear
9:56 PM 28.4 °F 21.2 °F 23.0 °F 80% 30.43 in 10.0 mi ENE 6.9 mph - N/A   Clear
10:16 PM 26.6 °F 17.5 °F 21.2 °F 80% 30.42 in 10.0 mi ENE 9.2 mph - N/A   Clear
10:36 PM 26.6 °F 18.2 °F 21.2 °F 80% 30.43 in 10.0 mi ENE 8.1 mph - N/A   Clear
10:56 PM 24.8 °F 16.1 °F 19.4 °F 80% 30.43 in 10.0 mi ESE 8.1 mph - N/A   Clear
11:16 PM 26.6 °F 19.1 °F 21.2 °F 80% 30.43 in 10.0 mi East 6.9 mph - N/A   Mostly Cloudy
11:36 PM 24.8 °F 19.1 °F 21.2 °F 86% 30.44 in 10.0 mi ENE 4.6 mph - N/A   Scattered Clouds
11:56 PM 24.8 °F 20.5 °F 19.4 °F 80% 30.44 in 10.0 mi NE 3.5 mph - N/A   Clear